Voltar ao catálogo

CBERS 1

AtivoCiênciaSSO
NORAD 25940·PAYLOAD·🇧🇷 Brazil🇨🇳 China

Lançado Oct 14, 1999 de Taiyuan Satellite Launch Center

Loading…

Próximas Passagens (próximas 24 horas)

TLE

AtualizadoSource: Space-Track

Época: Sep 14, 2026, 12:13 UTC

1 25940U 99057A   26257.50959593  .00000085  00000-0  44430-4 0  9999
2 25940  98.8506 269.5970 0006030  94.1908 265.9967 14.37032779410345

Acompanhe CBERS 1 em tempo real com AllMySat

Download on the App Store